Weather History for KLEX - February, 2013

Change the Weather History Date:

Wednesday, February 27, 2013

  Actual Average Record
Temperature  
Mean Temperature 36 °F 40 °F  
Max Temperature 39 °F 49 °F 73 °F (1996)
Min Temperature 32 °F 31 °F -3 °F (1934)
Degree Days  
Heating Degree Days 29 25  
Month to date heating degree days 797 763  
Since 1 July heating degree days 3476 3546  
Cooling Degree Days 0 0  
Month to date cooling degree days 0 0  
Year to date cooling degree days 0 0  
Moisture  
Dew Point 33 °F    
Average Humidity 91    
Maximum Humidity 96    
Minimum Humidity 85    
Precipitation  
Precipitation 0.01 in 0.12 in 2.90 in (1962)
Month to date precipitation 1.51 3.09  
Year to date precipitation 5.97 6.29  
Snow  
Snow T in 0.10 in 7.00 in (1906)
Month to date snowfall 2.6 4.5  
Since 1 July snowfall 8.5 11.2  
Snow Depth 0.00 in    
Sea Level Pressure  
Sea Level Pressure 29.73 in    
Wind  
Wind Speed 15 mph (SW)    
Max Wind Speed 25 mph    
Max Gust Speed 35 mph    
Visibility 8 miles    
Events Rain , Snow    
T = Trace of Precipitation, MM = Missing Value Source: NWS Daily Summary

Daily Weather History Graph

Daily Weather History Graph

Search for Another Location

Airport or City:

Trip Planner

Search our weather history database for the weather conditions in past years. The results will help you decide how hot, cold, wet, or windy it might be!

Date:

Astronomy

Feb. 27, 2013 Rise Set
Actual Time 7:12 AM EST 6:30 PM EST
Civil Twilight 6:46 AM EST 6:56 PM EST
Nautical Twilight 6:15 AM EST 7:27 PM EST
Astronomical Twilight 5:45 AM EST 7:57 PM EST
Moon 8:47 PM EST (2/27) 7:50 AM EST (2/27)
Length of Visible Light 12h 10m
Length of Day
11h 17m
Waning Gibbous, 96% of the Moon is Illuminated
Feb 27
Waning Gibbous
Mar 4
Last Quarter
Mar 11
New
Mar 19
First Quarter
Mar 27
Full

Hourly Weather History & Observations

Time (EST) Temp. Windchill Dew Point Humidity Pressure Visibility Wind Dir Wind Speed Gust Speed Precip Events Conditions
12:20 AM 37.4 °F 28.9 °F 35.6 °F 93% 29.59 in 10.0 mi SW 13.8 mph - 0.00 in Rain Light Rain
12:54 AM 37.9 °F 30.5 °F 36.0 °F 93% 29.60 in 10.0 mi SW 11.5 mph 20.7 mph 0.00 in Rain Light Rain
1:02 AM 37.4 °F 28.2 °F 35.6 °F 93% 29.60 in 10.0 mi SW 16.1 mph 20.7 mph 0.00 in Rain Light Rain
1:54 AM 37.9 °F 29.6 °F 36.0 °F 93% 29.62 in 10.0 mi SW 13.8 mph - 0.00 in Rain Light Rain
2:35 AM 37.4 °F 29.3 °F 35.6 °F 93% 29.62 in 10.0 mi SW 12.7 mph - 0.00 in   Overcast
2:54 AM 37.9 °F 30.5 °F 36.0 °F 93% 29.63 in 10.0 mi SW 11.5 mph - 0.00 in Rain Light Rain
3:34 AM 37.4 °F 28.2 °F 35.6 °F 93% 29.63 in 10.0 mi SW 16.1 mph 25.3 mph 0.00 in Rain Light Rain
3:54 AM 37.9 °F 30.5 °F 35.1 °F 89% 29.63 in 10.0 mi SW 11.5 mph - 0.00 in   Overcast
4:54 AM 37.9 °F 28.5 °F 34.0 °F 86% 29.65 in 10.0 mi WSW 17.3 mph 27.6 mph N/A   Overcast
5:54 AM 37.0 °F 28.9 °F 35.1 °F 93% 29.67 in 10.0 mi WSW 12.7 mph 27.6 mph N/A   Overcast
6:54 AM 37.0 °F 28.9 °F 35.1 °F 93% 29.69 in 10.0 mi SW 12.7 mph - N/A   Overcast
7:54 AM 37.0 °F 27.7 °F 34.0 °F 89% 29.72 in 10.0 mi SW 16.1 mph 25.3 mph N/A   Overcast
8:54 AM 36.0 °F 25.6 °F 34.0 °F 93% 29.74 in 8.0 mi SW 18.4 mph 25.3 mph 0.01 in   Overcast
9:54 AM 37.0 °F 29.3 °F 35.1 °F 93% 29.75 in 10.0 mi SW 11.5 mph 20.7 mph N/A   Overcast
10:54 AM 37.0 °F 27.4 °F 34.0 °F 89% 29.75 in 10.0 mi SW 17.3 mph 25.3 mph N/A   Overcast
11:12 AM 37.4 °F 27.2 °F 33.8 °F 87% 29.73 in 10.0 mi SW 19.6 mph 32.2 mph N/A   Overcast
11:49 AM 37.4 °F 26.6 °F 33.8 °F 87% 29.73 in 8.0 mi SW 21.9 mph 29.9 mph 0.00 in   Overcast
11:54 AM 37.0 °F 26.7 °F 35.1 °F 93% 29.75 in 7.0 mi SW 19.6 mph 29.9 mph 0.00 in Rain Light Rain
12:20 PM 37.4 °F 27.5 °F 33.8 °F 87% 29.73 in 10.0 mi SW 18.4 mph 29.9 mph 0.00 in   Overcast
12:42 PM 37.4 °F 26.9 °F 33.8 °F 87% 29.73 in 10.0 mi SW 20.7 mph 27.6 mph 0.00 in Rain Light Rain
12:54 PM 37.0 °F 26.7 °F 33.1 °F 86% 29.74 in 10.0 mi SW 19.6 mph 28.8 mph 0.00 in   Overcast
1:54 PM 37.0 °F 27.0 °F 33.1 °F 86% 29.73 in 10.0 mi SW 18.4 mph 26.5 mph N/A   Overcast
2:54 PM 35.1 °F 23.8 °F 32.0 °F 89% 29.74 in 5.0 mi WSW 20.7 mph 26.5 mph 0.00 in Rain Rain
3:04 PM 33.8 °F 23.9 °F 33.8 °F 100% 29.73 in 6.0 mi WSW 15.0 mph 28.8 mph 0.00 in Snow Light Snow
3:33 PM 35.6 °F 25.2 °F 32.0 °F 87% 29.74 in 10.0 mi SW 18.4 mph 25.3 mph 0.00 in   Overcast
3:54 PM 34.0 °F 24.2 °F 33.1 °F 96% 29.76 in 7.0 mi WSW 15.0 mph - 0.00 in Rain Light Rain
4:10 PM 35.6 °F 26.6 °F 32.0 °F 87% 29.75 in 10.0 mi WSW 13.8 mph 21.9 mph 0.00 in   Overcast
4:51 PM 33.8 °F 23.9 °F 32.0 °F 93% 29.76 in 6.0 mi WSW 15.0 mph 25.3 mph 0.00 in   Overcast
4:54 PM 34.0 °F 24.6 °F 32.0 °F 92% 29.78 in 7.0 mi WSW 13.8 mph 23.0 mph 0.00 in   Overcast
5:14 PM 33.8 °F 23.9 °F 32.0 °F 93% 29.76 in 10.0 mi SW 15.0 mph - N/A   Overcast
5:40 PM 33.8 °F 24.3 °F 32.0 °F 93% 29.77 in 4.0 mi SW 13.8 mph 20.7 mph 0.00 in Snow Light Snow
5:54 PM 34.0 °F 24.2 °F 30.9 °F 89% 29.78 in 2.5 mi WSW 15.0 mph - 0.00 in Snow Light Snow
5:59 PM 33.8 °F 25.3 °F 32.0 °F 93% 29.77 in 2.5 mi WSW 11.5 mph - 0.00 in Snow Light Snow
6:50 PM 33.8 °F 23.5 °F 32.0 °F 93% 29.78 in 2.0 mi SW 16.1 mph - 0.00 in Snow Light Snow
6:54 PM 33.1 °F 23.9 °F 32.0 °F 96% 29.80 in 2.0 mi SW 12.7 mph - 0.00 in Snow Light Snow
7:01 PM 33.8 °F 24.8 °F 32.0 °F 93% 29.78 in 5.0 mi SW 12.7 mph 19.6 mph 0.00 in Snow Light Snow
7:29 PM 33.8 °F 24.8 °F 32.0 °F 93% 29.79 in 7.0 mi SW 12.7 mph 21.9 mph 0.00 in   Overcast
7:44 PM 33.8 °F 24.3 °F 32.0 °F 93% 29.79 in 8.0 mi SW 13.8 mph - 0.00 in   Overcast
7:54 PM 33.1 °F 23.0 °F 32.0 °F 96% 29.81 in 9.0 mi SW 15.0 mph - 0.00 in   Overcast
8:02 PM 33.8 °F 24.3 °F 32.0 °F 93% 29.78 in 8.0 mi SW 13.8 mph - N/A   Overcast
8:54 PM 33.8 °F 23.9 °F 32.0 °F 93% 29.78 in 5.0 mi SW 15.0 mph - N/A Snow Light Snow
9:01 PM 33.8 °F 23.9 °F 32.0 °F 93% 29.78 in 7.0 mi SW 15.0 mph - 0.00 in   Overcast
9:54 PM 33.1 °F 23.9 °F 32.0 °F 96% 29.80 in 8.0 mi SW 12.7 mph - 0.00 in   Overcast
10:54 PM 33.8 °F 24.8 °F 32.0 °F 93% 29.77 in 4.0 mi SW 12.7 mph - N/A Snow Light Snow
11:35 PM 33.8 °F 24.3 °F 30.2 °F 87% 29.77 in 9.0 mi WSW 13.8 mph - 0.00 in   Mostly Cloudy
11:54 PM 32.0 °F 21.2 °F 30.0 °F 92% 29.79 in 10.0 mi West 16.1 mph 23.0 mph 0.00 in   Overcast